Presure
105 127 130 117 135 171 171 188 183 176 191 208 223 161 157 159 165 192 134 200 202 211 210 148 215 230 234 231 242 247 252 231 252 245 250 187 238 99 257 257 121 111 278
137 133 137 136 126 173 169 187 178 185 226 226 167 146 136 167 196 171 195 195 197 187 200 200 104 233 229 231 233 227 242 240 215 242 218 267 228 267 196 174 253 113 270
152 135 139 129 168 167 167 177 173 180 188 182 147 143 153 177 178 190 149 124 136 199 202 210 185 231 230 237 185 245 237 225 232 253 237 225 271 238 167 89 202 258 268
151 162 159 180 164 159 177 182 181 146 184 149 158 174 191 193 191 191 185 204 209 219 218 220 219 220 221 218 215 219 237 238 225 227 226 90 216 267 269 196 297 268 251
163 178 170 172 165 144 173 180 122 167 188 177 181 123 183 190 187 198 209 203 214 219 226 208 220 224 223 219 236 217 218 220 238 230 230 224 264 239 269 277 284 133 293
180 169 183 172 176 128 128 128 160 198 182 177 134 169 191 191 201 198 201 219 217 209 215 218 221 200 215 254 241 240 220 250 235 236 262 279 224 237 254 252 267 283 272
170 178 179 170 126 126 181 204 192 158 180 183 190 196 161 148 209 209 221 142 218 203 212 209 209 213 251 238 229 209 205 212 254 249 210 218 281 270 271 267 262 263 272
169 181 187 134 125 194 195 186 169 188 194 198 117 208 90 212 146 212 193 202 212 215 208 212 226 227 236 235 243 198 238 245 240 224 261 261 214 275 273 266 266 264 263
201 126 127 196 198 184 174 181 193 190 192 195 195 211 120 225 223 211 224 217 216 220 212 220 223 223 244 219 218 219 257 260 257 265 261 267 263 271 270 266 270 258 262
123 170 123 169 178 183 190 190 193 198 197 219 223 225 221 221 215 214 206 215 215 217 222 225 226 231 227 205 212 230 234 258 251 262 257 263 265 260 263 267 261 268 262
126 187 183 184 190 188 189 200 199 195 227 227 225 213 217 219 219 224 220 222 224 226 236 233 243 225 211 206 223 229 254 262 258 254 262 252 255 260 260 262 261 262 262
186 186 190 191 192 194 196 205 211 224 230 234 221 220 221 221 223 224 225 227 222 222 227 233 212 217 246 230 225 254 259 262 265 258 257 261 253 253 254 252 257 254 255
191 189 191 200 196 208 208 225 231 234 232 216 220 217 216 214 212 224 210 212 209 225 229 227 241 248 221 228 241 259 263 263 261 262 259 255 259 262 263 257 252 261 262
193 205 204 210 218 232 230 231 231 226 217 215 212 209 203 210 210 215 215 217 220 215 238 243 243 243 244 246 258 264 266 271 272 268 266 262 267 274 273 277 285 279 280
202 203 222 229 235 229 221 229 216 209 209 211 202 210 211 207 213 217 219 225 232 227 245 244 247 247 250 258 267 271 275 274 272 270 271 277 287 293 299 295 297 295 318
215 226 232 234 226 214 209 203 214 211 212 217 216 207 213 222 228 228 225 234 240 243 245 252 259 265 270 274 277 287 278 279 279 284 289 297 299 304 309 337 348 325 339
231 233 223 216 224 210 212 207 205 209 221 216 220 228 236 239 229 231 239 246 254 265 267 279 284 285 307 293 293 286 288 288 291 294 303 314 338 323 415 409 400 390 422
235 229 227 227 210 214 221 222 222 222 228 229 240 253 244 238 255 273 283 280 286 292 296 295 290 285 292 291 290 284 285 295 293 309 353 340 361 403 341 373 391 382 375
214 216 220 216 222 226 226 224 229 229 236 253 258 272 285 294 289 287 288 285 287 287 298 278 281 292 297 286 283 291 301 323 366 372 413 402 398 377 363 354 351 352 360
226 230 231 230 232 231 237 258 269 261 301 292 302 301 292 289 291 296 288 278 279 284 286 296 330 322 332 338 332 344 316 383 397 389 373 358 342 334 358 347 343 341 334
236 243 251 260 272 274 275 299 301 301 294 294 288 287 285 294 292 289 287 274 278 287 308 340 328 328 339 368 387 386 393 380 367 347 332 328 330 330 324 318 314 307 304
275 303 283 283 276 295 302 286 300 299 297 291 317 301 293 291 280 285 281 279 286 301 347 334 330 364 400 406 393 357 353 333 332 328 324 318 308 302 297 293 291 291 294
296 289 315 296 287 309 301 296 293 291 289 326 306 301 305 303 306 304 286 280 296 353 341 368 351 403 367 357 347 322 334 327 319 305 293 288 284 287 291 292 295 298 363
290 301 285 295 299 296 296 296 289 308 320 317 319 330 332 325 318 324 327 366 382 381 414 402 372 355 323 334 331 316 299 291 287 290 292 291 289 289 287 284 282 297 360
292 294 305 299 307 308 321 348 318 322 315 317 319 322 322 320 341 337 373 361 394 364 350 334 332 334 322 295 285 280 284 284 282 281 289 337 358 351 403 392 387 391 377
309 309 311 331 333 326 319 319 322 328 340 350 342 342 338 392 411 397 374 339 326 325 336 326 301 284 278 281 276 269 270 325 362 361 375 409 410 414 407 465 449 431 424
Wind_Speed
54 58 60 59 62 54 55 60 57 57 60 59 51 61 64 66 66 65 63 65 66 69 68 65 70 70 68 66 62 58 54 50 48 41 41 53 49 53 52 54 86 84 54
61 62 62 64 66 61 60 64 61 64 59 57 65 66 69 73 67 71 69 70 70 68 71 71 55 71 69 65 61 57 55 49 50 47 57 45 42 48 58 61 57 75 57
54 64 66 68 63 63 64 67 66 68 63 66 70 71 75 72 65 73 58 60 59 76 76 75 69 71 69 66 55 62 57 52 49 54 49 53 48 47 56 59 64 60 61
60 61 67 74 64 64 72 73 73 69 71 74 77 77 74 75 76 78 75 79 81 80 77 77 73 72 69 67 65 60 62 61 53 51 52 53 58 51 52 54 52 61 64
70 76 74 76 72 68 75 77 66 72 77 78 79 69 78 80 80 83 84 82 80 77 76 76 74 72 73 73 74 68 64 64 67 61 58 55 58 55 54 55 57 73 57
80 77 83 78 81 69 70 71 77 80 82 82 64 80 84 86 87 86 84 83 80 80 79 77 77 70 75 69 70 71 71 71 70 67 61 60 59 59 62 62 59 60 60
80 86 86 84 71 75 82 83 84 72 86 87 89 90 73 68 90 89 86 67 83 83 83 82 80 80 73 73 74 71 70 71 69 66 65 63 62 66 64 65 63 63 62
84 90 91 80 78 89 88 88 86 91 93 95 58 96 48 93 71 87 78 84 85 84 85 85 86 85 80 78 77 76 77 72 76 73 68 66 68 68 69 70 68 67 67
96 82 83 96 93 94 94 95 99 98 99 100 98 98 62 92 91 91 90 88 88 89 87 90 89 87 82 81 81 82 77 74 73 69 69 68 69 70 73 74 75 73 72
61 95 84 95 99 101 104 104 105 106 106 102 99 95 96 95 93 92 91 93 93 92 94 95 93 90 88 85 87 88 87 79 78 75 73 72 71 73 74 75 77 79 79
70 102 103 105 107 107 108 113 112 109 105 102 100 98 98 98 98 99 98 99 99 99 99 97 97 93 92 92 94 93 85 83 81 80 79 77 76 76 77 79 81 82 83
106 107 109 110 110 114 115 116 112 110 106 102 102 102 101 101 102 102 103 102 99 101 103 102 97 98 99 99 100 95 89 87 85 85 84 85 82 85 85 84 86 89 89
113 112 113 116 115 118 117 114 111 105 105 106 106 104 103 102 103 109 102 104 102 110 108 106 109 106 103 104 102 98 94 93 91 90 88 89 91 92 92 93 94 96 97
119 121 121 122 122 118 115 112 109 108 108 107 106 105 104 109 109 111 112 112 115 111 116 115 112 111 112 110 106 103 101 99 97 95 96 96 98 100 99 101 103 101 101
123 124 127 123 119 116 116 114 111 108 109 110 104 112 113 111 116 120 120 122 124 122 118 116 112 112 112 112 109 107 104 103 102 103 105 106 108 107 108 108 107 104 110
130 132 127 123 119 117 114 112 118 116 117 121 120 113 119 123 126 127 125 127 125 121 119 116 113 113 111 111 109 107 107 108 109 111 114 114 112 109 112 117 113 109 112
134 130 124 121 125 117 120 117 118 122 129 123 126 132 131 129 125 129 127 123 120 114 113 112 110 108 106 105 106 106 109 112 115 114 119 124 123 118 96 90 92 89 75
134 132 131 128 121 125 128 131 133 134 137 136 138 130 130 131 127 118 113 110 107 107 106 107 108 109 111 109 109 106 108 116 118 125 124 114 104 80 87 77 71 71 72
125 130 133 128 134 133 134 135 138 139 141 137 134 128 123 115 112 110 110 108 108 107 102 110 117 122 116 113 113 117 119 123 117 106 75 74 71 72 74 72 71 71 68
133 137 139 140 144 141 141 142 136 135 122 122 115 113 113 112 112 111 110 110 109 114 114 124 119 107 110 115 121 122 105 95 76 71 71 73 72 73 70 70 69 66 69
140 145 147 146 142 139 134 127 120 115 114 115 116 116 115 114 114 110 112 110 114 119 128 120 112 111 117 104 95 86 76 75 72 72 72 73 72 70 70 71 70 68 69
141 107 130 127 133 122 120 121 119 116 113 117 112 113 114 114 112 114 114 117 120 124 130 115 113 110 85 75 72 77 74 75 72 71 71 72 74 74 72 72 72 71 70
116 126 98 121 124 113 117 120 120 119 120 108 110 110 113 115 120 125 117 109 121 128 118 113 100 72 76 77 76 78 75 74 73 74 75 76 76 76 76 76 75 72 68
122 114 122 125 120 119 120 121 120 123 108 108 108 113 117 117 116 119 119 119 112 104 79 75 76 77 79 77 77 76 78 78 78 79 78 77 76 76 78 77 75 72 70
120 124 121 122 124 122 123 102 107 106 108 110 111 114 114 114 111 108 99 94 77 82 82 82 81 78 76 78 81 82 82 82 83 82 80 81 80 77 74 71 70 69 68
122 122 126 118 107 104 108 109 109 111 110 107 108 108 105 89 79 78 78 84 84 84 83 81 79 79 80 82 83 84 85 91 90 89 85 80 76 71 67 61 60 59 57
Wind_Direction
287 284 282 286 287 303 303 310 307 302 309 313 312 291 286 287 291 301 288 307 309 313 311 289 307 305 304 303 304 303 303 287 296 289 284 273 263 263 257 258 245 260 246
279 281 281 282 283 306 302 309 304 307 313 313 295 289 286 294 304 294 306 306 307 304 306 304 265 305 302 301 301 297 299 294 285 290 276 282 277 269 259 264 255 250 250
280 281 279 280 302 300 300 305 301 304 301 301 289 290 290 298 302 305 291 284 285 304 304 305 299 306 304 304 293 305 299 286 290 298 280 275 278 264 261 271 255 253 252
286 297 295 304 296 292 303 305 303 287 301 290 292 298 305 307 305 305 303 305 304 302 303 303 302 302 301 299 294 294 302 298 284 285 278 275 267 276 270 266 265 253 252
297 300 300 301 299 286 299 302 287 297 303 300 301 289 304 304 302 306 306 303 303 304 304 301 303 305 305 301 301 295 294 295 294 290 285 276 281 279 270 269 268 253 258
299 297 300 298 298 287 286 287 293 303 299 298 291 299 303 303 304 303 302 304 303 301 302 304 305 300 302 298 296 296 293 292 291 289 284 278 273 275 269 267 265 267 256
295 298 297 295 287 288 298 303 301 298 297 300 303 304 299 295 302 301 302 292 303 300 303 301 301 299 299 295 294 291 290 290 289 285 276 278 273 272 269 266 263 261 262
294 295 297 287 290 301 301 298 296 299 302 303 293 302 278 301 293 302 300 300 301 300 298 299 301 299 299 298 296 285 294 290 289 286 284 280 274 272 269 266 263 260 257
299 288 288 300 301 297 295 298 302 301 301 301 300 301 289 301 301 300 303 301 301 301 298 301 301 300 299 295 294 292 294 289 287 285 281 277 274 271 268 267 264 262 258
288 293 289 295 295 298 301 301 301 300 300 300 300 301 301 301 301 301 298 301 300 300 301 300 300 298 296 291 293 294 292 289 286 284 280 278 274 270 268 264 264 263 260
290 296 296 298 299 299 299 300 299 299 302 302 302 300 302 304 304 302 302 302 301 301 300 299 299 295 293 292 293 292 292 288 284 282 281 277 275 272 268 266 263 260 259
294 295 296 296 296 297 297 296 298 302 302 300 301 302 302 303 302 302 302 300 300 300 299 298 294 294 295 293 292 295 292 288 284 281 280 278 273 272 268 265 263 260 258
294 294 295 295 295 296 297 300 300 300 300 300 301 300 301 300 300 302 298 298 296 300 298 297 296 294 292 291 292 293 290 287 284 283 280 278 277 275 272 268 265 262 260
293 294 295 296 297 298 298 299 298 299 299 298 298 299 298 300 300 300 299 299 299 296 299 297 296 295 294 294 293 292 289 286 284 282 280 278 277 276 275 273 272 267 264
293 295 297 297 298 297 297 298 298 296 296 297 295 298 298 296 297 299 297 298 297 297 295 295 294 293 292 292 290 289 286 284 283 281 281 280 279 278 277 276 274 272 273
296 297 296 296 296 297 296 294 296 296 297 297 297 295 295 296 297 296 296 296 294 293 292 292 292 291 289 287 286 285 285 285 284 284 283 281 282 283 282 279 275 275 275
295 294 293 295 295 292 294 295 295 294 295 294 295 296 294 293 295 295 293 291 290 291 291 289 288 288 286 286 286 285 284 284 284 285 287 284 282 282 284 279 276 273 271
291 293 293 294 292 292 294 294 294 294 294 294 293 293 294 293 291 290 290 291 291 290 290 292 292 292 290 288 286 285 286 287 287 286 282 282 284 281 279 278 275 272 270
292 293 292 292 292 292 292 293 292 291 290 292 290 289 291 293 293 293 293 293 293 295 291 293 291 289 285 286 286 284 286 287 288 285 281 281 280 279 277 276 273 272 271
288 289 290 291 290 290 290 289 290 291 291 291 292 293 294 294 294 290 290 294 295 294 292 290 286 283 284 283 280 281 283 285 283 283 283 280 277 277 277 275 274 272 271
289 289 288 288 288 290 290 289 293 293 293 293 293 293 293 289 292 290 289 293 293 292 290 290 290 289 288 286 287 285 283 282 283 282 280 278 277 275 273 273 271 269 267
288 283 288 286 287 290 291 291 292 292 293 292 285 285 285 285 289 287 287 287 288 288 290 289 288 289 286 283 282 283 283 282 281 279 277 275 274 274 273 272 271 270 269
280 282 279 287 289 286 287 288 290 292 292 279 282 282 280 279 279 279 281 284 284 287 288 290 286 283 283 283 283 283 282 281 279 277 274 274 274 274 273 272 271 270 270
284 281 286 284 286 286 286 288 288 286 283 283 282 279 278 279 280 280 281 286 287 287 285 283 283 283 285 284 283 281 279 278 277 276 275 274 273 273 273 272 270 269 269
281 281 281 283 282 284 283 278 283 283 283 284 284 283 283 282 282 284 287 286 286 284 283 284 284 284 283 281 279 279 279 279 278 276 276 278 279 276 277 274 271 268 267
278 279 280 280 279 279 282 283 284 282 281 282 283 284 284 286 288 286 285 285 285 285 285 284 282 281 279 279 279 278 278 283 283 282 282 281 279 277 273 265 262 260 257